FW0683 Weather Reports


time (UTC)temp
C
wind
direction
speed
KPH
gust
KPH
rain 1hr
cm
rain 24hr
cm
rain mn
cm
humidity
%
barometer
mb
20260905100002 13 154 0.0 0.0 0.00 0.03 0.00 94 1012.2
20260905094503 13 154 0.0 0.0 0.00 0.03 0.00 94 1012.1
20260905093103 14 154 0.0 0.0 0.00 0.03 0.00 94 1012.2
20260905091605 14 154 0.0 0.0 0.00 0.03 0.00 94 1011.9
20260905090100 14 154 0.0 0.0 0.00 0.03 0.00 94 1011.9
20260905084558 14 154 0.0 0.0 0.00 0.03 0.00 94 1011.9
20260905083058 14 154 0.0 0.0 0.00 0.03 0.00 94 1011.9
20260905081604 14 154 0.0 0.0 0.00 0.03 0.00 94 1011.9
20260905074555 14 154 0.0 0.0 0.00 0.03 0.00 94 1011.9
20260905073055 14 154 0.0 0.0 0.00 0.03 0.00 93 1011.9
20260905071556 14 154 0.0 0.0 0.00 0.03 0.00 93 1012.0
20260905070053 14 154 0.0 0.0 0.00 0.03 0.00 93 1011.9
20260905064551 15 154 0.0 0.0 0.00 0.03 0.00 93 1012.1
20260905063100 15 154 0.0 0.0 0.00 0.03 0.00 93 1012.0
20260905061607 15 154 0.0 0.0 0.00 0.03 0.00 93 1012.2
20260905060047 15 154 0.0 0.0 0.00 0.03 0.00 93 1012.3
20260905054547 15 154 0.0 0.0 0.00 0.03 0.00 92 1012.3
20260905053053 15 154 0.0 0.0 0.00 0.03 0.00 92 1012.2
20260905051546 15 154 0.0 0.0 0.00 0.03 0.00 92 1012.3
20260905050044 15 154 0.0 0.0 0.00 0.03 0.00 92 1012.2
20260905044542 15 154 0.0 0.0 0.00 0.03 0.00 91 1012.3
20260905043041 16 154 0.0 0.0 0.00 0.03 0.00 91 1012.4
20260905041538 16 154 0.0 0.0 0.00 0.03 0.00 91 1012.3
20260905040036 16 154 0.0 0.0 0.00 0.03 0.03 91 1012.3
20260905034534 16 154 0.0 0.0 0.00 0.03 0.03 91 1012.4
20260905033035 16 154 0.0 0.0 0.00 0.03 0.03 90 1012.4
20260905031532 17 154 0.0 0.0 0.00 0.03 0.03 89 1012.4
20260905030036 17 154 0.0 0.0 0.00 0.64 0.03 89 1012.5
20260905024533 17 154 0.0 0.0 0.00 0.64 0.03 88 1012.5
20260905023029 17 154 0.0 0.0 0.00 0.64 0.03 88 1012.6
20260905021529 17 154 0.0 0.0 0.00 0.64 0.03 88 1012.7
20260905020049 17 154 0.0 0.0 0.00 0.64 0.03 87 1012.6
20260905014526 17 154 0.0 0.0 0.00 0.64 0.03 90 1012.8
20260905013035 17 154 0.0 0.0 0.00 0.64 0.03 90 1013.0
20260905011525 17 154 0.0 0.0 0.00 0.64 0.03 89 1012.9
20260905010024 17 154 0.0 0.0 0.00 0.64 0.03 89 1012.9
20260905004524 17 154 0.0 0.0 0.00 0.64 0.03 88 1012.8
20260905003023 18 154 0.0 0.0 0.00 0.64 0.03 88 1012.9
20260905001523 18 154 0.0 0.0 0.00 0.64 0.03 87 1012.8
20260905000023 18 154 0.0 0.0 0.00 0.64 0.03 86 1012.7
20260904234522 18 154 0.0 0.0 0.00 0.64 0.03 84 1012.5
20260904233022 19 154 0.0 0.0 0.00 0.64 0.03 83 1012.4
20260904231526 20 154 0.0 0.0 0.00 0.64 0.03 83 1012.3
20260904230022 20 154 0.0 0.0 0.00 0.64 0.03 83 1012.3
20260904224523 21 154 0.0 0.0 0.00 0.64 0.03 83 1012.2
20260904223024 21 154 0.0 0.0 0.00 0.64 0.03 81 1012.2
20260904221519 21 154 0.0 0.0 0.00 0.64 0.03 77 1012.1
20260904220024 22 154 0.0 0.0 0.00 0.64 0.03 79 1012.2
20260904214518 23 154 0.0 0.0 0.00 0.64 0.03 72 1012.1
20260904213026 23 86 0.0 0.0 0.00 0.64 0.03 72 1012.2
20260904211519 24 83 0.0 0.0 0.00 0.64 0.03 70 1012.1
20260904210025 25 156 0.0 0.0 0.00 0.64 0.03 67 1011.9
20260904204516 24 250 0.0 0.0 0.00 0.64 0.03 73 1011.9
20260904203016 25 332 0.0 0.0 0.00 0.64 0.03 67 1011.9
20260904201515 24 344 0.0 0.0 0.00 0.64 0.03 64 1011.9
20260904200018 25 79 0.0 0.0 0.00 0.64 0.03 63 1011.9
20260904194514 25 243 0.0 0.0 0.00 0.64 0.03 69 1011.9
20260904193013 25 90 0.0 0.0 0.00 0.64 0.03 66 1011.8
20260904191512 26 114 0.0 0.0 0.00 0.64 0.03 67 1011.8
20260904190013 27 85 0.0 0.0 0.00 0.64 0.03 56 1011.8
20260904184510 27 342 0.0 1.6 0.00 0.64 0.03 55 1011.9
20260904183009 27 305 0.0 0.0 0.00 0.64 0.03 59 1011.9
20260904181507 27 269 0.0 0.0 0.00 0.64 0.03 57 1011.8
20260904180009 27 2 0.0 0.0 0.00 0.64 0.03 58 1011.9
20260904174504 27 34 0.0 0.0 0.00 0.64 0.03 61 1012.0
20260904173003 27 346 0.0 1.6 0.00 0.64 0.03 63 1012.0
20260904171501 27 86 0.0 0.0 0.00 0.64 0.03 61 1012.1
20260904170100 27 324 0.0 0.0 0.00 0.64 0.03 65 1012.3
20260904164559 27 239 0.0 0.0 0.00 0.64 0.03 68 1012.4
20260904163059 26 287 0.0 0.0 0.00 0.64 0.03 64 1012.4
20260904161559 26 354 0.0 0.0 0.00 0.64 0.03 68 1012.5
20260904160053 26 38 0.0 0.0 0.00 0.64 0.03 72 1012.7
20260904154550 26 33 0.0 0.0 0.00 0.64 0.03 74 1012.8
20260904153058 26 54 0.0 0.0 0.00 0.64 0.03 75 1012.9
20260904151545 25 3 0.0 0.0 0.00 0.64 0.03 79 1013.0
20260904150042 24 349 0.0 0.0 0.00 0.64 0.03 80 1013.1
20260904144539 24 85 0.0 0.0 0.00 0.64 0.03 80 1013.1
20260904143037 23 10 0.0 0.0 0.00 0.64 0.03 83 1013.4
20260904141539 23 23 0.0 0.0 0.00 0.64 0.03 87 1013.4
20260904140035 22 352 0.0 0.0 0.00 0.64 0.03 88 1013.6
20260904134533 22 58 0.0 0.0 0.00 0.64 0.03 89 1013.5
20260904133023 21 330 0.0 0.0 0.00 0.64 0.03 92 1013.5
20260904131520 21 330 0.0 0.0 0.00 0.64 0.03 93 1013.7
20260904130017 20 3 0.0 0.0 0.00 0.66 0.03 94 1013.7
20260904124515 20 44 0.0 0.0 0.00 0.66 0.03 94 1013.6
20260904123012 18 43 0.0 0.0 0.00 0.66 0.03 95 1013.7
20260904121511 18 44 0.0 0.0 0.00 0.66 0.03 95 1013.9
20260904120009 18 61 0.0 0.0 0.00 0.71 0.03 95 1013.7
20260904114507 18 328 0.0 0.0 0.00 0.71 0.03 95 1013.8
20260904113009 18 42 0.0 0.0 0.00 0.71 0.03 95 1013.7
20260904111506 17 61 0.0 0.0 0.00 0.71 0.03 95 1013.5
20260904110005 17 61 0.0 0.0 0.00 0.79 0.03 95 1013.4
20260904104505 17 61 0.0 0.0 0.03 0.79 0.03 95 1013.5
20260904103003 17 61 0.0 0.0 0.03 0.79 0.03 95 1013.5
20260904101503 17 61 0.0 0.0 0.03 0.79 0.03 95 1013.4